Simultaneous Nadir Overpasses (SNOs) Predictions

Prediction of SNOs between AQUA and LANDSAT-8 Satellite Orbit:

Table of predicted SNOs for the next 14.0 days since TLE Epoch: 3/1/2025
Index Date (AQUA) Time (AQUA) Lat,Lon (AQUA) SZA (AQUA ) Date (LANDSAT-8) Time (LANDSAT-8) Lat,Lon (LANDSAT-8) SZA (LANDSAT-8 ) Distance(km) Time Diff (sec)
1 03/12/2025 14:04:21 74.36, -24.26 77.40 03/12/2025 14:03:16 74.35, -27.03 77.34 83.21 65
2 03/12/2025 14:53:47 -74.75, 142.44 102.25 03/12/2025 14:52:36 -74.75, 141.58 102.27 25.31 71
3 03/12/2025 15:43:08 74.90, -50.28 77.88 03/12/2025 15:41:57 74.91, -50.37 77.89 3.02 71
4 03/12/2025 16:32:27 -74.93, 117.32 102.11 03/12/2025 16:31:24 -74.95, 117.37 102.09 2.97 63
5 03/12/2025 17:21:46 74.92, -75.00 77.88 03/12/2025 17:20:50 74.91, -75.09 77.86 3.03 56
6 03/12/2025 18:11:05 -74.95, 92.59 102.11 03/12/2025 18:10:17 -74.95, 92.65 102.12 1.69 48
7 03/12/2025 19:00:24 74.95, -99.73 77.88 03/12/2025 18:59:42 74.96, -99.68 77.89 1.62 42
8 03/12/2025 19:49:42 -74.93, 68.00 102.16 03/12/2025 19:49:10 -74.95, 67.92 102.14 2.86 32
9 03/12/2025 20:39:02 74.98,-124.46 77.88 03/12/2025 20:38:35 74.96,-124.40 77.86 2.85 27
10 03/12/2025 21:28:20 -74.96, 43.27 102.16 03/12/2025 21:28:03 -74.95, 43.20 102.17 2.33 17
11 03/12/2025 22:17:39 74.96,-149.05 77.83 03/12/2025 22:17:28 74.96,-149.13 77.83 2.15 11
12 03/12/2025 23:06:58 -74.99, 18.54 102.16 03/12/2025 23:06:55 -75.00, 18.61 102.15 2.31 3
13 03/12/2025 23:56:17 74.98,-173.78 77.83 03/12/2025 23:56:20 75.01,-173.72 77.86 3.08 3
14 03/13/2025 00:45:36 -75.01, -6.19 102.16 03/13/2025 00:45:48 -75.00, -6.11 102.17 2.88 12
15 03/13/2025 01:34:55 75.01, 161.49 77.83 03/13/2025 01:35:13 75.01, 161.56 77.83 2.12 18
16 03/13/2025 02:24:13 -74.99, -30.78 102.21 03/13/2025 02:24:41 -74.99, -30.84 102.20 1.64 28
17 03/13/2025 03:13:32 74.99, 136.89 77.78 03/13/2025 03:14:06 75.00, 136.84 77.80 2.38 34
18 03/13/2025 04:02:51 -75.02, -55.51 102.21 03/13/2025 04:03:34 -74.99, -55.56 102.23 3.10 43
19 03/13/2025 04:52:10 75.02, 112.16 77.78 03/13/2025 04:52:59 75.00, 112.11 77.77 2.20 49
20 03/13/2025 05:41:29 -75.05, -80.24 102.21 03/13/2025 05:42:26 -75.04, -80.15 102.21 2.60 57
21 03/13/2025 06:30:48 75.05, 87.43 77.78 03/13/2025 06:31:51 75.05, 87.52 77.80 2.61 63
22 03/13/2025 07:20:07 -75.07,-104.97 102.21 03/13/2025 07:21:19 -75.04,-104.87 102.23 4.54 72
23 03/13/2025 08:09:31 75.32, 62.01 78.03 03/13/2025 08:10:40 75.25, 63.34 77.98 38.28 69
24 03/13/2025 08:58:56 -75.65,-131.25 101.67 03/13/2025 09:00:00 -75.64,-127.95 101.63 91.24 64



Historial Predications of SNOs between AQUA and LANDSAT-8
